Weather History for Topeka, KS

Change the Weather History Date:

Monday, March 3, 2014

  Actual Average Record
Temperature  
Mean Temperature 9 °F 40 °F  
Max Temperature 21 °F 51 °F 80 °F (1910)
Min Temperature -3 °F 29 °F -3 °F (2014)
Degree Days  
Heating Degree Days 56 25  
Month to date heating degree days 161 76  
Since 1 July heating degree days 4483 4043  
Cooling Degree Days 0 0  
Month to date cooling degree days 0 0  
Year to date cooling degree days 0 0  
Moisture  
Dew Point -5 °F    
Average Humidity 45    
Maximum Humidity 59    
Minimum Humidity 31    
Precipitation  
Precipitation 0.00 in 0.06 in 0.80 in (1944)
Month to date precipitation 0.17 0.18  
Year to date precipitation 1.83 2.36  
Snow  
Snow 0.00 in 0.10 in 5.90 in (1953)
Month to date snowfall 2.4 0.2  
Year to date snowfall 21.3 9.6  
Since 1 July snowfall 25.6 16.1  
Snow Depth 1.00 in    
Sea Level Pressure  
Sea Level Pressure 30.50 in    
Wind  
Wind Speed 6 mph (ESE)    
Max Wind Speed 17 mph    
Max Gust Speed 22 mph    
Visibility 10 miles    
Events      
T = Trace of Precipitation, MM = Missing Value Source: NWS Daily Summary

Daily Weather History Graph

Daily Weather History Graph

Search for Another Location

Airport:

Trip Planner

Search our weather history database for the weather conditions in past years. The results will help you decide how hot, cold, wet, or windy it might be!

Date:

Astronomy

Mar. 03, 2014 Rise Set
Actual Time 6:52 AM CST 6:17 PM CST
Civil Twilight 6:25 AM CST 6:44 PM CST
Nautical Twilight 5:54 AM CST 7:15 PM CST
Astronomical Twilight 5:23 AM CST 7:46 PM CST
Moon 8:02 AM CST (3/3) 9:19 PM CST (3/3)
Length of Visible Light 12h 18m
Length of Day
11h 25m
Waxing Crescent, 8% of the Moon is Illuminated
Mar 3
Waxing Crescent
Mar 8
First Quarter
Mar 16
Full
Mar 23
Last Quarter
Mar 30
New

Hourly Weather History & Observations

Time (CST) Temp. Windchill Dew Point Humidity Pressure Visibility Wind Dir Wind Speed Gust Speed Precip Events Conditions
12:53 AM 3.0 °F -13.3 °F -9.9 °F 55% 30.63 in 10.0 mi North 11.5 mph - N/A   Clear
1:53 AM 1.9 °F -13.8 °F -13.0 °F 50% 30.63 in 10.0 mi North 10.4 mph 19.6 mph N/A   Mostly Cloudy
2:53 AM 1.0 °F -14.0 °F -14.1 °F 49% 30.61 in 10.0 mi North 9.2 mph - N/A   Clear
3:53 AM -0.9 °F -15.3 °F -13.0 °F 57% 30.61 in 10.0 mi North 8.1 mph - N/A   Clear
4:53 AM -0.9 °F -12.7 °F -13.0 °F 57% 30.61 in 10.0 mi North 5.8 mph - N/A   Clear
5:53 AM -2.0 °F -13.9 °F -13.0 °F 60% 30.61 in 10.0 mi North 5.8 mph - N/A   Clear
6:53 AM -2.0 °F - -13.0 °F 60% 30.61 in 10.0 mi Calm Calm - N/A   Clear
7:53 AM -0.0 °F -11.6 °F -11.9 °F 57% 30.61 in 10.0 mi North 5.8 mph - N/A   Clear
8:53 AM 3.0 °F - -9.0 °F 57% 30.62 in 10.0 mi Calm Calm - N/A   Clear
9:53 AM 7.0 °F -3.3 °F -9.0 °F 48% 30.61 in 10.0 mi East 5.8 mph - N/A   Clear
10:53 AM 8.1 °F 1.4 °F -9.0 °F 46% 30.61 in 10.0 mi Variable 3.5 mph - N/A   Clear
11:53 AM 14.0 °F 8.2 °F -6.0 °F 41% 30.58 in 10.0 mi East 3.5 mph - N/A   Clear
12:53 PM 15.1 °F 9.4 °F -6.0 °F 39% 30.56 in 10.0 mi Variable 3.5 mph - N/A   Clear
1:53 PM 17.1 °F 8.7 °F -6.0 °F 36% 30.50 in 10.0 mi SE 5.8 mph - N/A   Clear
2:53 PM 19.9 °F 11.1 °F -7.1 °F 30% 30.46 in 10.0 mi SSE 6.9 mph - N/A   Clear
3:53 PM 19.9 °F 9.3 °F -2.9 °F 37% 30.43 in 10.0 mi SE 9.2 mph - N/A   Clear
4:53 PM 21.0 °F 9.9 °F -0.9 °F 38% 30.39 in 10.0 mi SE 10.4 mph - N/A   Clear
5:53 PM 21.0 °F 10.6 °F -0.9 °F 38% 30.38 in 10.0 mi SSE 9.2 mph - N/A   Clear
6:53 PM 19.0 °F 7.5 °F 1.9 °F 47% 30.35 in 10.0 mi SE 10.4 mph - N/A   Clear
7:53 PM 19.0 °F 10.0 °F 1.9 °F 47% 30.35 in 10.0 mi SSE 6.9 mph - N/A   Clear
8:53 PM 19.0 °F 12.3 °F 3.0 °F 50% 30.35 in 10.0 mi South 4.6 mph - N/A   Clear
9:53 PM 18.0 °F 11.1 °F 3.9 °F 54% 30.33 in 10.0 mi South 4.6 mph - N/A   Clear
10:53 PM 18.0 °F 9.8 °F 5.0 °F 57% 30.32 in 10.0 mi SSE 5.8 mph - N/A   Clear
11:53 PM 18.0 °F 11.1 °F 6.1 °F 60% 30.31 in 10.0 mi South 4.6 mph - N/A   Clear